Weather History for KAGC - July, 2013

Change the Weather History Date:

Saturday, July 20, 2013

  Actual Average Record
Temperature  
Mean Temperature 74 °F -  
Max Temperature 80 °F 84 °F 94 °F (1991)
Min Temperature 69 °F 64 °F 53 °F (1997)
Cooling Degree Days 10    
Growing Degree Days 24 (Base 50)    
Moisture  
Dew Point 68 °F    
Average Humidity 84    
Maximum Humidity 94    
Minimum Humidity 69    
Precipitation  
Precipitation 0.11 in - - ()
Sea Level Pressure  
Sea Level Pressure 29.91 in    
Wind  
Wind Speed 8 mph (SW)    
Max Wind Speed 15 mph    
Max Gust Speed 25 mph    
Visibility 8 miles    
Events Rain    
Averages and records for this station are not official NWS values.
T = Trace of Precipitation, MM = Missing Value Source: NWS Daily Summary

Daily Weather History Graph

Daily Weather History Graph

Search for Another Location

Airport or City:

Trip Planner

Search our weather history database for the weather conditions in past years. The results will help you decide how hot, cold, wet, or windy it might be!

Date:

Astronomy

Jul. 20, 2013 Rise Set
Actual Time 6:06 AM EDT 8:45 PM EDT
Civil Twilight 5:35 AM EDT 9:16 PM EDT
Nautical Twilight 4:55 AM EDT 9:55 PM EDT
Astronomical Twilight 4:10 AM EDT 10:40 PM EDT
Moon 6:46 PM EDT (7/20) 3:44 AM EDT (7/20)
Length of Visible Light 15h 41m
Length of Day
14h 38m
Waxing Gibbous, 93% of the Moon is Illuminated
Jul 20
Waxing Gibbous
Jul 22
Full
Jul 29
Last Quarter
Aug 6
New
Aug 14
First Quarter

Hourly Weather History & Observations

Time (EDT) Temp. Heat Index Dew Point Humidity Pressure Visibility Wind Dir Wind Speed Gust Speed Precip Events Conditions
12:53 AM 73.0 °F - 69.1 °F 87% 29.92 in 8.0 mi SW 8.1 mph - N/A   Partly Cloudy
1:53 AM 71.1 °F - 69.1 °F 93% 29.90 in 7.0 mi South 9.2 mph - N/A   Clear
2:53 AM 71.1 °F - 68.0 °F 90% 29.88 in 7.0 mi South 10.4 mph - N/A   Clear
3:53 AM 71.1 °F - 68.0 °F 90% 29.88 in 9.0 mi SSW 11.5 mph - N/A   Partly Cloudy
4:53 AM 71.1 °F - 68.0 °F 90% 29.90 in 10.0 mi SW 10.4 mph - N/A   Mostly Cloudy
5:01 AM 71.6 °F - 68.0 °F 88% 29.91 in 10.0 mi SSW 10.4 mph - N/A   Mostly Cloudy
5:53 AM 71.1 °F - 68.0 °F 90% 29.89 in 9.0 mi SSW 10.4 mph - N/A   Overcast
6:53 AM 71.1 °F - 69.1 °F 93% 29.89 in 5.0 mi SSW 9.2 mph - N/A   Scattered Clouds
7:11 AM 71.6 °F - 69.8 °F 94% 29.91 in 5.0 mi SW 8.1 mph - N/A   Mostly Cloudy
7:20 AM 71.6 °F - 69.8 °F 94% 29.93 in 4.0 mi NW 4.6 mph - N/A   Mostly Cloudy
7:49 AM 71.6 °F - 68.0 °F 88% 29.95 in 2.0 mi NNW 9.2 mph - 0.05 in Rain Light Rain
7:53 AM 69.1 °F - 66.9 °F 93% 29.94 in 1.2 mi NW 5.8 mph 16.1 mph 0.10 in Rain Heavy Rain
8:03 AM 69.8 °F - 66.2 °F 88% 29.94 in 3.0 mi Calm Calm - 0.01 in Rain Light Rain
8:16 AM 69.8 °F - 68.0 °F 94% 29.93 in 8.0 mi Calm Calm - 0.01 in Rain Light Rain
8:53 AM 73.0 °F - 68.0 °F 84% 29.93 in 10.0 mi WSW 3.5 mph - 0.01 in   Partly Cloudy
9:29 AM 73.4 °F - 69.8 °F 88% 29.94 in 10.0 mi SSW 6.9 mph - N/A   Overcast
9:53 AM 75.0 °F - 69.1 °F 82% 29.93 in 10.0 mi SW 8.1 mph - N/A   Overcast
10:01 AM 75.2 °F - 69.8 °F 83% 29.94 in 9.0 mi WSW 8.1 mph - N/A   Overcast
10:53 AM 75.9 °F - 70.0 °F 82% 29.93 in 6.0 mi West 4.6 mph - N/A   Haze
11:05 AM 75.2 °F - 69.8 °F 83% 29.93 in 6.0 mi West 4.6 mph - N/A   Haze
11:14 AM 75.2 °F - 69.8 °F 83% 29.93 in 7.0 mi South 3.5 mph - N/A   Scattered Clouds
11:53 AM 77.0 °F - 71.1 °F 82% 29.91 in 6.0 mi South 9.2 mph - N/A   Haze
12:53 PM 80.1 °F 83.2 °F 70.0 °F 71% 29.88 in 9.0 mi South 15.0 mph - N/A   Clear
1:53 PM 79.0 °F - 70.0 °F 74% 29.89 in 10.0 mi SSW 15.0 mph 25.3 mph N/A   Partly Cloudy
2:53 PM 75.9 °F - 69.1 °F 79% 29.88 in 10.0 mi South 9.2 mph - N/A   Clear
3:53 PM 77.0 °F - 68.0 °F 74% 29.88 in 10.0 mi SW 10.4 mph - N/A   Partly Cloudy
4:53 PM 75.0 °F - 68.0 °F 79% 29.87 in 10.0 mi SW 5.8 mph - N/A   Clear
5:53 PM 77.0 °F - 68.0 °F 74% 29.88 in 10.0 mi WSW 10.4 mph 16.1 mph N/A   Partly Cloudy
6:53 PM 77.0 °F - 66.0 °F 69% 29.88 in 10.0 mi West 9.2 mph - N/A   Mostly Cloudy
7:53 PM 75.9 °F - 66.0 °F 71% 29.90 in 10.0 mi WSW 11.5 mph - N/A   Clear
8:53 PM 73.9 °F - 66.9 °F 79% 29.89 in 10.0 mi SW 4.6 mph - N/A   Clear
9:53 PM 73.0 °F - 66.0 °F 79% 29.91 in 10.0 mi SSW 4.6 mph - N/A   Clear
10:53 PM 72.0 °F - 66.0 °F 81% 29.92 in 10.0 mi SW 8.1 mph - N/A   Clear
11:53 PM 70.0 °F - 66.9 °F 90% 29.94 in 10.0 mi West 8.1 mph - N/A   Mostly Cloudy